NULL Weather Reports


Display with metric or nautical units.
time (UTC)temp
F
wind
direction
speed
MPH
gust
MPH
rain 1hr
in
rain 24hr
in
rain mn
in
humidity
%
barometer
mb
20260906001544 90 81 0.0 0.0 0.00 0.00 0.00 69 1009.2
20260906001528 84 145 0.0 0.0 0.00 0.00 0.00 35 1011.0
20260906000039 91 81 0.0 1.0 0.00 0.00 0.00 67 1009.2
20260906000026 85 168 0.0 0.0 0.00 0.00 0.00 33 1011.0
20260905234535 92 81 0.0 0.0 0.00 0.00 0.00 64 1009.1
20260905234525 86 153 0.0 0.0 0.00 0.00 0.00 32 1010.9
20260905233032 93 81 0.0 0.0 0.00 0.00 0.00 59 1009.0
20260905233025 87 153 0.0 0.0 0.00 0.00 0.00 34 1010.9
20260905231524 93 81 0.0 1.0 0.00 0.00 0.00 60 1009.0
20260905230021 88 148 0.0 0.0 0.00 0.00 0.00 34 1010.9
20260905230018 94 81 0.0 2.0 0.00 0.00 0.00 57 1008.9
20260905224526 88 137 0.0 0.0 0.00 0.00 0.00 33 1011.0
20260905224513 95 40 0.0 3.0 0.00 0.00 0.00 55 1008.9
20260905223025 96 122 3.0 6.0 0.00 0.00 0.00 48 1009.0
20260905223017 87 144 0.0 0.0 0.00 0.00 0.00 34 1011.1
20260905221515 87 140 0.0 0.0 0.00 0.00 0.00 35 1011.3
20260905221502 96 52 1.0 6.0 0.00 0.00 0.00 48 1009.0
20260905220016 86 156 0.0 0.0 0.00 0.00 0.00 37 1011.3
20260905214550 97 18 2.0 7.0 0.00 0.00 0.00 45 1009.2
20260905214512 87 141 0.0 0.0 0.00 0.00 0.00 38 1011.5
20260905213042 96 235 0.0 5.0 0.00 0.00 0.00 45 1009.4
20260905213022 87 140 0.0 0.0 0.00 0.00 0.00 38 1011.8
20260905211543 96 54 2.0 5.0 0.00 0.00 0.00 47 1009.7
20260905211508 88 140 0.0 0.0 0.00 0.00 0.00 37 1011.9
20260905210026 96 311 3.0 8.0 0.00 0.00 0.00 48 1010.1
20260905210011 88 174 0.0 0.0 0.00 0.00 0.00 38 1011.9
20260905204520 96 41 1.0 5.0 0.00 0.00 0.00 47 1010.1
20260905204507 88 177 0.0 0.0 0.00 0.00 0.00 39 1012.0
20260905203115 97 32 2.0 5.0 0.00 0.00 0.00 47 1010.3
20260905203005 88 175 0.0 0.0 0.00 0.00 0.00 37 1012.1
20260905201509 96 291 0.0 6.0 0.00 0.00 0.00 48 1010.3
20260905201504 89 140 0.0 0.0 0.00 0.00 0.00 39 1012.1
20260905200003 88 137 0.0 0.0 0.00 0.00 0.00 42 1012.3
20260905200001 95 4 3.0 6.0 0.00 0.00 0.00 48 1010.6
20260905194557 95 354 4.0 6.0 0.00 0.00 0.00 49 1010.8
20260905194503 88 137 0.0 0.0 0.00 0.00 0.00 44 1012.4
20260905193109 88 135 0.0 1.0 0.00 0.00 0.00 39 1012.6
20260905193049 94 327 2.0 5.0 0.00 0.00 0.00 53 1010.9
20260905191600 87 147 0.0 0.0 0.00 0.00 0.00 37 1012.8
20260905191544 93 68 3.0 6.0 0.00 0.00 0.00 56 1011.0
20260905190059 87 125 0.0 0.0 0.00 0.00 0.00 42 1013.1
20260905190038 93 69 1.0 3.0 0.00 0.00 0.00 56 1011.1
20260905184550 85 156 0.0 0.0 0.00 0.00 0.00 42 1013.2
20260905184536 94 92 1.0 3.0 0.00 0.00 0.00 54 1011.2
20260905183052 84 148 0.0 0.0 0.00 0.00 0.00 42 1013.3
20260905183027 94 154 2.0 4.0 0.00 0.00 0.00 54 1011.4
20260905181547 84 143 0.0 0.0 0.00 0.00 0.00 45 1013.5
20260905181522 94 133 3.0 7.0 0.00 0.00 0.00 55 1011.5
20260905180121 95 120 1.0 3.0 0.00 0.00 0.00 55 1011.7
20260905180044 82 175 0.0 0.0 0.00 0.00 0.00 50 1013.7
20260905174541 82 156 0.0 0.0 0.00 0.00 0.00 50 1013.7
20260905174506 93 183 0.0 3.0 0.00 0.00 0.00 59 1012.1
20260905173058 92 42 2.0 4.0 0.00 0.00 0.00 60 1012.3
20260905173037 81 144 0.0 0.0 0.00 0.00 0.00 55 1013.6
20260905171603 90 26 1.0 4.0 0.00 0.00 0.00 64 1012.2
20260905171533 79 140 0.0 0.0 0.00 0.00 0.00 61 1013.7
20260905170055 90 48 1.0 4.0 0.00 0.00 0.00 62 1012.4
20260905170028 77 138 0.0 0.0 0.00 0.00 0.00 66 1013.6
20260905164548 90 58 2.0 4.0 0.00 0.00 0.00 62 1012.6
20260905164526 74 193 0.0 0.0 0.00 0.00 0.00 72 1013.7
20260905163045 90 21 1.0 3.0 0.00 0.00 0.00 63 1012.4
20260905163020 73 196 0.0 0.0 0.00 0.00 0.00 77 1013.6
20260905161542 88 54 1.0 3.0 0.00 0.00 0.00 65 1012.5
20260905161517 71 202 0.0 0.0 0.00 0.00 0.00 80 1013.5
20260905160046 87 29 1.0 6.0 0.00 0.00 0.00 65 1012.4
20260905160033 70 193 0.0 0.0 0.00 0.00 0.00 83 1013.5
20260905154550 88 85 1.0 3.0 0.00 0.00 0.00 65 1012.2
20260905154509 69 149 0.0 0.0 0.00 0.00 0.00 85 1013.5
20260905153033 87 123 1.0 3.0 0.00 0.00 0.00 65 1012.1
20260905153006 68 149 0.0 0.0 0.00 0.00 0.00 85 1013.3
20260905151530 85 133 1.0 3.0 0.00 0.00 0.00 67 1012.0
20260905151505 68 145 0.0 0.0 0.00 0.00 0.00 85 1013.1
20260905150026 84 133 1.0 3.0 0.00 0.00 0.00 69 1012.1
20260905150005 66 144 0.0 0.0 0.00 0.00 0.00 86 1013.1
20260905144535 82 190 2.0 5.0 0.00 0.00 0.00 71 1011.9
20260905144504 65 138 0.0 0.0 0.00 0.00 0.00 87 1013.0
20260905143018 81 208 1.0 3.0 0.00 0.00 0.00 78 1011.8
20260905143002 64 138 0.0 0.0 0.00 0.00 0.00 89 1012.8
20260905141515 79 182 0.0 2.0 0.00 0.00 0.00 83 1011.9
20260905141502 63 136 0.0 0.0 0.00 0.00 0.00 89 1012.7
20260905140101 63 136 0.0 0.0 0.00 0.00 0.00 90 1012.6
20260905140011 78 182 1.0 2.0 0.00 0.00 0.00 83 1011.9
20260905134601 62 136 0.0 0.0 0.00 0.00 0.00 90 1012.6
20260905134510 77 182 0.0 2.0 0.00 0.00 0.00 84 1011.9
20260905133058 63 136 0.0 0.0 0.00 0.00 0.00 89 1012.4
20260905133009 76 182 0.0 0.0 0.00 0.00 0.00 85 1011.6
20260905131559 63 136 0.0 0.0 0.00 0.00 0.00 89 1012.2
20260905131508 75 185 0.0 0.0 0.00 0.00 0.00 85 1011.5
20260905130056 63 135 0.0 0.0 0.00 0.00 0.00 89 1012.2
20260905130005 74 185 0.0 0.0 0.00 0.00 0.00 85 1011.2
20260905124556 63 135 0.0 0.0 0.00 0.00 0.00 88 1012.3
20260905124506 73 185 0.0 0.0 0.00 0.00 0.00 85 1011.1
20260905123053 63 135 0.0 0.0 0.00 0.00 0.00 88 1012.2
20260905123003 73 185 0.0 1.0 0.00 0.00 0.00 85 1010.9
20260905121553 63 135 0.0 0.0 0.00 0.00 0.00 87 1012.3
20260905121504 72 185 0.0 0.0 0.00 0.00 0.00 85 1010.9
20260905120054 64 135 0.0 0.0 0.00 0.00 0.00 87 1012.3
20260905120000 72 188 0.0 2.0 0.00 0.00 0.00 85 1010.9
20260905114611 72 191 0.0 4.0 0.00 0.00 0.00 85 1010.7
20260905114550 64 135 0.0 0.0 0.00 0.00 0.00 86 1012.1
20260905113059 72 230 0.0 2.0 0.00 0.00 0.00 85 1010.5
20260905113050 64 135 0.0 0.0 0.00 0.00 0.00 86 1012.2
20260905111616 64 135 0.0 0.0 0.00 0.00 0.00 86 1012.2
20260905111611 72 231 0.0 0.0 0.00 0.00 0.00 85 1010.4
20260905110046 65 135 0.0 0.0 0.00 0.00 0.00 87 1012.4
20260905104556 72 225 0.0 0.0 0.00 0.00 0.00 85 1010.2
20260905104544 65 135 0.0 0.0 0.00 0.00 0.00 87 1012.5
20260905103055 73 222 0.0 0.0 0.00 0.00 0.00 85 1010.2
20260905103042 66 135 0.0 0.0 0.00 0.00 0.00 87 1012.4
20260905101554 73 222 0.0 0.0 0.00 0.00 0.00 85 1010.2
20260905101545 66 135 0.0 0.0 0.00 0.00 0.00 87 1012.3
20260905100053 73 222 0.0 1.0 0.00 0.00 0.00 85 1010.1
20260905100039 66 135 0.0 0.0 0.00 0.00 0.00 88 1012.6
20260905094601 73 222 0.0 2.0 0.00 0.00 0.00 85 1010.1
20260905094538 66 135 0.0 0.0 0.00 0.00 0.00 88 1012.6
20260905093048 73 222 0.0 0.0 0.00 0.00 0.00 85 1010.3
20260905093040 66 136 0.0 0.0 0.00 0.00 0.00 88 1012.6
20260905091553 74 221 0.0 0.0 0.00 0.00 0.00 85 1010.4
20260905091535 67 136 0.0 0.0 0.00 0.00 0.00 88 1012.6
20260905090046 74 221 0.0 0.0 0.00 0.00 0.00 85 1010.4
20260905090036 67 136 0.0 0.0 0.00 0.00 0.00 88 1012.6
20260905084546 74 222 0.0 0.0 0.00 0.00 0.00 85 1010.3
20260905084532 67 136 0.0 0.0 0.00 0.00 0.00 89 1012.7
20260905083044 74 222 0.0 0.0 0.00 0.00 0.00 85 1010.3
20260905083037 67 136 0.0 0.0 0.00 0.00 0.00 89 1012.8
20260905081553 74 221 0.0 0.0 0.00 0.00 0.00 85 1010.3
20260905081530 67 136 0.0 0.0 0.00 0.00 0.00 89 1012.9
20260905080054 74 222 0.0 0.0 0.00 0.00 0.00 85 1010.3
20260905080040 68 136 0.0 0.0 0.00 0.00 0.00 89 1013.0
20260905074541 74 221 0.0 0.0 0.00 0.00 0.00 85 1010.3
20260905074528 68 135 0.0 0.0 0.00 0.00 0.00 89 1013.0
20260905073046 75 221 0.0 0.0 0.00 0.00 0.00 84 1010.3
20260905073027 67 135 0.0 0.0 0.00 0.00 0.00 89 1012.8
20260905071539 75 221 1.0 3.0 0.00 0.00 0.00 85 1010.3
20260905071528 67 135 0.0 0.0 0.00 0.00 0.00 88 1012.8
20260905070045 75 40 0.0 2.0 0.00 0.00 0.00 85 1010.5
20260905070023 68 135 0.0 0.0 0.00 0.00 0.00 88 1012.8
20260905064538 76 40 0.0 0.0 0.00 0.00 0.00 84 1010.6
20260905064531 68 135 0.0 0.0 0.00 0.00 0.00 88 1012.6
20260905063036 76 40 0.0 0.0 0.00 0.00 0.00 84 1010.7
20260905063022 68 135 0.0 0.0 0.00 0.00 0.00 87 1012.6
20260905061550 76 40 0.0 0.0 0.00 0.00 0.00 84 1010.7
20260905061522 68 135 0.0 0.0 0.00 0.00 0.00 87 1012.6
20260905060032 69 133 0.0 0.0 0.00 0.00 0.00 86 1012.5
20260905060030 77 40 0.0 0.0 0.00 0.00 0.00 84 1010.7
20260905054528 77 40 0.0 1.0 0.00 0.00 0.00 84 1010.4
20260905054521 69 133 0.0 0.0 0.00 0.00 0.00 86 1012.3
20260905053029 69 133 0.0 0.0 0.00 0.00 0.00 86 1012.3
20260905051533 77 210 0.0 4.0 0.00 0.00 0.00 84 1010.4
20260905051523 69 133 0.0 0.0 0.00 0.00 0.00 85 1012.3
20260905050024 78 189 1.0 3.0 0.00 0.00 0.00 84 1010.4
20260905050020 70 133 0.0 0.0 0.00 0.00 0.00 85 1012.3
20260905044526 78 171 0.0 0.0 0.00 0.00 0.00 84 1010.5
20260905044523 70 133 0.0 0.0 0.00 0.00 0.00 84 1012.1
20260905043037 79 171 0.0 0.0 0.00 0.00 0.00 84 1010.5
20260905043018 70 133 0.0 0.0 0.00 0.00 0.00 84 1012.2
20260905041522 79 171 0.0 2.0 0.00 0.00 0.00 84 1010.4
20260905041518 70 134 0.0 0.0 0.00 0.00 0.00 84 1012.0
20260905040029 79 171 0.0 0.0 0.00 0.00 0.00 83 1010.4
20260905040020 70 134 0.0 0.0 0.00 0.00 0.00 84 1011.9
20260905034528 80 171 0.0 0.0 0.00 0.00 0.00 83 1010.5
20260905034517 71 157 0.0 0.0 0.00 0.00 0.00 83 1011.8
20260905033021 80 171 0.0 0.0 0.00 0.00 0.00 83 1010.4
20260905033017 71 157 0.0 0.0 0.00 0.00 0.00 82 1011.7
20260905031522 81 171 0.0 0.0 0.00 0.00 0.00 81 1010.2
20260905031519 71 157 0.0 0.0 0.00 0.00 0.00 81 1011.5
20260905030022 72 158 0.0 0.0 0.00 0.00 0.00 80 1011.3
20260905030020 81 171 0.0 1.0 0.00 0.00 0.00 80 1010.1
20260905024528 72 144 0.0 0.0 0.00 0.00 0.00 78 1011.0
20260905024519 82 171 0.0 2.0 0.00 0.00 0.00 79 1010.0
20260905023019 83 192 0.0 2.0 0.00 0.00 0.00 78 1009.8
20260905023015 72 151 0.0 0.0 0.00 0.00 0.00 75 1011.0
20260905021518 83 192 0.0 1.0 0.00 0.00 0.00 75 1009.7
20260905021513 73 150 0.0 0.0 0.00 0.00 0.00 73 1011.1
20260905020022 73 147 0.0 0.0 0.00 0.00 0.00 71 1011.2
20260905020018 84 192 0.0 3.0 0.00 0.00 0.00 74 1009.6
20260905014520 85 189 0.0 0.0 0.00 0.00 0.00 70 1009.4
20260905014512 74 158 0.0 0.0 0.00 0.00 0.00 70 1011.2
20260905013017 86 189 0.0 1.0 0.00 0.00 0.00 68 1009.2
20260905013012 75 157 0.0 0.0 0.00 0.00 0.00 70 1011.2
20260905011516 88 189 0.0 1.0 0.00 0.00 0.00 65 1009.1
20260905011510 75 158 0.0 0.0 0.00 0.00 0.00 68 1011.3
20260905010020 90 189 0.0 0.0 0.00 0.00 0.00 61 1008.9
20260905010010 75 158 0.0 0.0 0.00 0.00 0.00 67 1011.4
20260905004518 91 189 0.0 0.0 0.00 0.00 0.00 58 1009.0
20260905004508 76 145 0.0 0.0 0.00 0.00 0.00 66 1011.3
20260905003021 93 189 0.0 3.0 0.00 0.00 0.00 54 1009.0
20260905003008 76 152 0.0 0.0 0.00 0.00 0.00 66 1011.4